TimeEDT,TemperatureF,Dew PointF,Humidity,Sea Level PressureIn,VisibilityMPH,Wind Direction,Wind SpeedMPH,Gust SpeedMPH,PrecipitationIn,Events,Conditions,WindDirDegrees,DateUTC
12:35 AM,39.4,35.2,85,30.44,10.0,Calm,Calm,-,N/A,,Clear,0,2012-10-13 04:35:00
12:55 AM,37.6,33.4,85,30.44,10.0,Calm,Calm,-,N/A,,Clear,0,2012-10-13 04:55:00
1:55 AM,36.7,32.9,86,30.44,10.0,Calm,Calm,-,N/A,,Clear,0,2012-10-13 05:55:00
2:15 AM,36.9,33.4,87,30.44,10.0,Calm,Calm,-,N/A,,Clear,0,2012-10-13 06:15:00
2:35 AM,36.5,32.9,87,30.44,10.0,Calm,Calm,-,N/A,,Clear,0,2012-10-13 06:35:00
2:55 AM,35.6,32.7,89,30.44,10.0,Calm,Calm,-,N/A,,Clear,0,2012-10-13 06:55:00
3:15 AM,35.4,32.9,91,30.44,10.0,Calm,Calm,-,N/A,,Clear,0,2012-10-13 07:15:00
3:35 AM,34.9,32.7,92,30.43,10.0,Calm,Calm,-,N/A,,Clear,0,2012-10-13 07:35:00
3:55 AM,34.0,32.0,92,30.45,10.0,Calm,Calm,-,N/A,,Clear,0,2012-10-13 07:55:00
4:35 AM,33.6,32.0,94,30.45,10.0,Calm,Calm,-,N/A,,Clear,0,2012-10-13 08:35:00
4:55 AM,33.6,32.0,94,30.46,7.0,Calm,Calm,-,N/A,,Clear,0,2012-10-13 08:55:00
5:15 AM,32.9,31.3,94,30.47,10.0,Calm,Calm,-,N/A,,Clear,0,2012-10-13 09:15:00
5:35 AM,33.8,32.0,93,30.48,10.0,Calm,Calm,-,N/A,,Clear,0,2012-10-13 09:35:00
5:55 AM,33.4,31.6,93,30.49,7.0,Calm,Calm,-,N/A,,Clear,0,2012-10-13 09:55:00
6:15 AM,32.7,31.1,94,30.48,10.0,Calm,Calm,-,N/A,,Clear,0,2012-10-13 10:15:00
6:35 AM,32.2,30.6,94,30.49,10.0,Calm,Calm,-,N/A,,Clear,0,2012-10-13 10:35:00
6:55 AM,32.0,30.4,94,30.49,10.0,Calm,Calm,-,N/A,,Clear,0,2012-10-13 10:55:00
7:15 AM,33.1,31.8,95,30.49,7.0,Calm,Calm,-,N/A,,Clear,0,2012-10-13 11:15:00
7:35 AM,32.0,30.0,92,30.50,5.0,Calm,Calm,-,N/A,,Clear,0,2012-10-13 11:35:00
7:55 AM,32.0,30.7,95,30.50,5.0,Calm,Calm,-,N/A,,Clear,0,2012-10-13 11:55:00
8:15 AM,33.3,31.8,94,30.50,5.0,Calm,Calm,-,N/A,,Clear,0,2012-10-13 12:15:00
8:35 AM,35.2,33.3,92,30.51,5.0,Calm,Calm,-,N/A,,Clear,0,2012-10-13 12:35:00
8:55 AM,37.6,35.2,91,30.51,7.0,Calm,Calm,-,N/A,,Clear,0,2012-10-13 12:55:00
9:15 AM,40.6,36.5,85,30.51,10.0,Calm,Calm,-,N/A,,Clear,0,2012-10-13 13:15:00
9:35 AM,42.4,37.4,82,30.51,10.0,Calm,Calm,-,N/A,,Clear,0,2012-10-13 13:35:00
9:55 AM,45.3,36.3,71,30.52,10.0,Calm,Calm,-,N/A,,Clear,0,2012-10-13 13:55:00
10:35 AM,49.3,34.2,56,30.50,10.0,South,3.5,-,N/A,,Clear,180,2012-10-13 14:35:00
10:55 AM,50.5,35.2,56,30.50,10.0,Calm,Calm,-,N/A,,Clear,0,2012-10-13 14:55:00
11:15 AM,53.1,32.0,45,30.49,10.0,South,9.2,-,N/A,,Clear,190,2012-10-13 15:15:00
11:35 AM,53.6,30.9,42,30.49,10.0,SSW,6.9,-,N/A,,Clear,210,2012-10-13 15:35:00
11:55 AM,54.5,31.8,42,30.48,10.0,South,8.1,16.1,N/A,,Clear,170,2012-10-13 15:55:00
12:15 PM,54.9,32.0,42,30.46,10.0,South,6.9,18.4,N/A,,Clear,170,2012-10-13 16:15:00
12:35 PM,55.6,32.9,42,30.45,10.0,South,6.9,16.1,N/A,,Clear,170,2012-10-13 16:35:00
12:55 PM,56.7,33.8,42,30.43,10.0,South,11.5,-,N/A,,Clear,180,2012-10-13 16:55:00
1:35 PM,58.1,34.7,41,30.40,10.0,South,10.4,18.4,N/A,,Clear,180,2012-10-13 17:35:00
1:55 PM,58.8,35.1,41,30.39,10.0,SSE,11.5,16.1,N/A,,Clear,160,2012-10-13 17:55:00
2:15 PM,58.8,35.2,41,30.38,10.0,South,6.9,18.4,N/A,,Clear,170,2012-10-13 18:15:00
2:35 PM,60.1,36.5,41,30.38,10.0,SSE,12.7,16.1,N/A,,Clear,160,2012-10-13 18:35:00
2:55 PM,60.4,36.3,41,30.37,10.0,SSE,9.2,-,N/A,,Clear,160,2012-10-13 18:55:00
3:15 PM,61.0,36.3,40,30.36,10.0,South,8.1,-,N/A,,Clear,190,2012-10-13 19:15:00
3:35 PM,61.5,36.9,40,30.35,10.0,SSE,9.2,-,N/A,,Clear,160,2012-10-13 19:35:00
4:15 PM,61.7,37.0,40,30.35,10.0,SSE,9.2,-,N/A,,Clear,150,2012-10-13 20:15:00
4:35 PM,61.9,37.2,40,30.34,10.0,SSE,9.2,-,N/A,,Clear,160,2012-10-13 20:35:00
4:55 PM,61.9,37.4,40,30.34,10.0,SSE,9.2,-,N/A,,Clear,160,2012-10-13 20:55:00
5:15 PM,61.3,37.6,41,30.34,10.0,SSE,8.1,-,N/A,,Clear,160,2012-10-13 21:15:00
5:35 PM,60.8,37.6,42,30.34,10.0,SSE,8.1,-,N/A,,Clear,160,2012-10-13 21:35:00
5:55 PM,59.9,37.6,44,30.33,10.0,South,9.2,-,N/A,,Clear,170,2012-10-13 21:55:00
6:15 PM,58.5,37.9,46,30.33,10.0,SSE,8.1,-,N/A,,Clear,160,2012-10-13 22:15:00
6:35 PM,57.6,38.3,49,30.33,10.0,SSE,8.1,-,N/A,,Clear,160,2012-10-13 22:35:00
6:55 PM,56.3,38.7,52,30.33,10.0,SSE,5.8,-,N/A,,Clear,160,2012-10-13 22:55:00
7:15 PM,55.8,38.7,53,30.34,10.0,South,5.8,-,N/A,,Clear,170,2012-10-13 23:15:00
7:35 PM,54.5,39.0,56,30.34,10.0,South,4.6,-,N/A,,Clear,190,2012-10-13 23:35:00
8:15 PM,53.4,39.2,59,30.35,10.0,South,4.6,-,N/A,,Clear,170,2012-10-14 00:15:00
8:35 PM,52.7,39.4,61,30.35,10.0,South,3.5,-,N/A,,Clear,190,2012-10-14 00:35:00
8:55 PM,50.2,39.4,66,30.34,10.0,Calm,Calm,-,N/A,,Clear,0,2012-10-14 00:55:00
9:55 PM,48.4,39.4,71,30.34,10.0,SW,3.5,-,N/A,,Clear,220,2012-10-14 01:55:00
10:15 PM,45.3,38.8,78,30.34,10.0,SW,4.6,-,N/A,,Clear,230,2012-10-14 02:15:00
10:35 PM,46.9,39.6,76,30.33,10.0,SSW,5.8,-,N/A,,Clear,210,2012-10-14 02:35:00
10:55 PM,48.2,39.9,73,30.33,10.0,WSW,3.5,-,N/A,,Clear,250,2012-10-14 02:55:00
11:15 PM,47.1,39.6,75,30.32,10.0,Calm,Calm,-,N/A,,Clear,0,2012-10-14 03:15:00
11:55 PM,49.1,40.8,73,30.30,10.0,South,4.6,-,N/A,,Clear,190,2012-10-14 03:55:00